This is the latest recevied weather packets stored in our database for station/object C31FR-13. If no packets are shown the sender has not sent any weather packets the latest 10 day(s).
| Time | Temp. | Humidity | Pressure | Rain* | Wind** | Luminosity | Snow |
|---|---|---|---|---|---|---|---|
| 1777928163 | 10.56° C | 87% | 1012.7 hPa | - | - | - | - |
| 1777927862 | 11.11° C | 84% | 1013 hPa | - | - | - | - |
| 1777927562 | 11.11° C | 83% | 1013.3 hPa | - | - | - | - |
| 1777927263 | 11.67° C | 83% | 1013.5 hPa | - | - | - | - |
| 1777926663 | 11.67° C | 87% | 1013.4 hPa | - | - | - | - |
| 1777926363 | 11.67° C | 89% | 1013.2 hPa | - | - | - | - |
| 1777925763 | 11.67° C | 94% | 1013.5 hPa | - | - | - | - |
| 1777925463 | 11.67° C | 89% | 1013.4 hPa | - | - | - | - |
| 1777925162 | 12.22° C | 93% | 1013.3 hPa | - | - | - | - |
| 1777924863 | 11.67° C | 94% | 1013.2 hPa | - | - | - | - |
| 1777924262 | 12.22° C | 93% | 1013.1 hPa | - | - | - | - |
| 1777923962 | 11.67° C | 97% | 1012.9 hPa | - | - | - | - |
| 1777923362 | 11.67° C | 97% | 1012.7 hPa | - | - | - | - |
| 1777922762 | 12.22° C | 97% | 1012.6 hPa | - | - | - | - |
| 1777922462 | 12.22° C | 94% | 1012.5 hPa | - | - | - | - |
| 1777922162 | 12.22° C | 93% | 1012.4 hPa | - | - | - | - |
| 1777921863 | 12.22° C | 92% | 1012.3 hPa | - | - | - | - |
| 1777921262 | 11.67° C | 91% | 1012 hPa | - | - | - | - |
| 1777920963 | 12.22° C | 87% | 1011.9 hPa | - | - | - | - |
| 1777920662 | 12.22° C | 87% | 1011.7 hPa | - | - | - | - |
| 1777920362 | 12.78° C | 90% | 1011.5 hPa | - | - | - | - |
| 1777920062 | 12.78° C | 91% | 1011.3 hPa | - | - | - | - |
| 1777919763 | 12.78° C | 87% | 1011.3 hPa | - | - | - | - |
| 1777919463 | 12.78° C | 89% | 1011.2 hPa | - | - | - | - |
| 1777919163 | 12.78° C | 93% | 1011.1 hPa | - | - | - | - |
* Rain since midnight (hover to see other rain measurements)
** Current wind speed in m/s (hover to see current wind gust speed)